When you browse on this site, cookies collect data to enhance your experience and personalize the content and advertising you see.
Visit our Privacy Policy to learn more. By continuing to use the site, you agree to this use of cookies and data.

Hourly Weather Mixquiahuala

Today, 6 August, Thursday

Time Temperature Precipitation Wind Pressure Humidity
00:00 +14°C° 0 mm 0 mps 601 mmHg 96%
01:00 +14°C° 0 mm 0 mps 601 mmHg 95%
02:00 +14°C° 0 mm 0 mps 601 mmHg 95%
03:00 +14°C° 0 mm 0 mps 601 mmHg 94%
04:00 +16°C° 0 mm 1 mps 601 mmHg 92%
05:00 +16°C° 0 mm 1 mps 601 mmHg 91%
06:00 +18°C° 0 mm 1 mps 602 mmHg 87%
07:00 +18°C° 0 mm 1 mps 602 mmHg 83%
08:00 +19°C° 0 mm 1 mps 603 mmHg 80%
09:00 +20°C° 0 mm 1 mps 603 mmHg 74%
10:00 +21°C° 0 mm 2 mps 603 mmHg 68%
11:00 +23°C° 0 mm 2 mps 604 mmHg 62%
12:00 +24°C° 0 mm 3 mps 604 mmHg 58%
13:00 +25°C° 0 mm 4 mps 603 mmHg 55%
14:00 +26°C° 0 mm 5 mps 603 mmHg 51%
15:00 +25°C° 0.2 mm 5 mps 603 mmHg 56%
16:00 +23°C° 0.2 mm 5 mps 602 mmHg 62%
17:00 +22°C° 0.2 mm 5 mps 602 mmHg 67%
18:00 +20°C° 0.1 mm 4 mps 602 mmHg 76%
19:00 +18°C° 0.1 mm 3 mps 602 mmHg 84%
20:00 +17°C° 0.1 mm 2 mps 602 mmHg 92%
21:00 +16°C° 0 mm 1 mps 602 mmHg 93%
22:00 +16°C° 0 mm 1 mps 601 mmHg 95%
23:00 +15°C° 0 mm 1 mps 601 mmHg 96%

Tomorrow, 7 August, Friday

Time Temperature Precipitation Wind Pressure Humidity
00:00 +16°C° 0 mm 1 mps 602 mmHg 94%
01:00 +16°C° 0 mm 1 mps 602 mmHg 92%
02:00 +18°C° 0 mm 1 mps 602 mmHg 90%
03:00 +18°C° 0.1 mm 1 mps 602 mmHg 90%
04:00 +18°C° 0.1 mm 1 mps 602 mmHg 90%
05:00 +18°C° 0.1 mm 1 mps 602 mmHg 90%
06:00 +19°C° 0 mm 1 mps 602 mmHg 85%
07:00 +19°C° 0 mm 1 mps 603 mmHg 80%
08:00 +19°C° 0 mm 2 mps 604 mmHg 76%
09:00 +20°C° 0.3 mm 2 mps 604 mmHg 71%
10:00 +22°C° 0.3 mm 3 mps 604 mmHg 66%
11:00 +24°C° 0.3 mm 3 mps 604 mmHg 61%
12:00 +23°C° 1.3 mm 4 mps 604 mmHg 62%
13:00 +23°C° 1.3 mm 5 mps 603 mmHg 63%
14:00 +24°C° 1.3 mm 6 mps 603 mmHg 63%
15:00 +23°C° 0.9 mm 6 mps 602 mmHg 67%
16:00 +22°C° 0.9 mm 6 mps 602 mmHg 70%
17:00 +21°C° 0.9 mm 6 mps 602 mmHg 73%
18:00 +19°C° 0.5 mm 5 mps 602 mmHg 79%
19:00 +18°C° 0.5 mm 3 mps 602 mmHg 86%
20:00 +17°C° 0.5 mm 2 mps 603 mmHg 92%
21:00 +16°C° 0.1 mm 2 mps 603 mmHg 94%
22:00 +16°C° 0.1 mm 1 mps 603 mmHg 95%
23:00 +16°C° 0.1 mm 1 mps 603 mmHg 96%

Day after tomorrow, 8 August, Saturday

Time Temperature Precipitation Wind Pressure Humidity
00:00 +16°C° 0 mm 1 mps 603 mmHg 96%
01:00 +16°C° 0 mm 1 mps 602 mmHg 95%
02:00 +16°C° 0 mm 1 mps 602 mmHg 95%
03:00 +16°C° 0 mm 1 mps 602 mmHg 94%
04:00 +15°C° 0 mm 1 mps 602 mmHg 94%
05:00 +15°C° 0 mm 1 mps 602 mmHg 93%
06:00 +16°C° 0 mm 1 mps 603 mmHg 89%
07:00 +17°C° 0 mm 2 mps 603 mmHg 84%
08:00 +18°C° 0 mm 2 mps 604 mmHg 79%
09:00 +19°C° 0 mm 3 mps 604 mmHg 72%
10:00 +21°C° 0 mm 3 mps 604 mmHg 65%
11:00 +22°C° 0 mm 4 mps 605 mmHg 58%
12:00 +22°C° 0.1 mm 5 mps 604 mmHg 59%
13:00 +22°C° 0.1 mm 6 mps 604 mmHg 61%
14:00 +22°C° 0.1 mm 7 mps 603 mmHg 62%
15:00 +22°C° 0.3 mm 7 mps 603 mmHg 65%
16:00 +21°C° 0.3 mm 7 mps 603 mmHg 68%
17:00 +20°C° 0.3 mm 7 mps 603 mmHg 71%
18:00 +17°C° 0 mm 5 mps 603 mmHg 77%
19:00 +17°C° 0 mm 4 mps 603 mmHg 84%
20:00 +15°C° 0 mm 2 mps 603 mmHg 90%
21:00 +15°C° 0 mm 2 mps 603 mmHg 91%
22:00 +15°C° 0 mm 1 mps 603 mmHg 93%
23:00 +15°C° 0 mm 1 mps 603 mmHg 94%

9 August, Sunday

Time Temperature Precipitation Wind Pressure Humidity
00:00 +15°C° 0 mm 1 mps 603 mmHg 93%
01:00 +15°C° 0 mm 1 mps 603 mmHg 93%
02:00 +14°C° 0 mm 1 mps 602 mmHg 92%
03:00 +14°C° 0 mm 1 mps 602 mmHg 94%
04:00 +13°C° 0 mm 1 mps 602 mmHg 95%
05:00 +12°C° 0 mm 1 mps 601 mmHg 96%
06:00 +14°C° 0 mm 1 mps 602 mmHg 87%
07:00 +16°C° 0 mm 1 mps 603 mmHg 78%
08:00 +18°C° 0 mm 1 mps 604 mmHg 69%
09:00 +19°C° 0 mm 2 mps 604 mmHg 61%
10:00 +21°C° 0 mm 2 mps 605 mmHg 54%
11:00 +24°C° 0 mm 3 mps 605 mmHg 47%
12:00 +23°C° 0 mm 4 mps 605 mmHg 50%
13:00 +23°C° 0 mm 5 mps 604 mmHg 53%
14:00 +24°C° 0 mm 6 mps 604 mmHg 56%
15:00 +22°C° 0.4 mm 6 mps 603 mmHg 63%
16:00 +21°C° 0.4 mm 5 mps 603 mmHg 69%
17:00 +20°C° 0.4 mm 5 mps 602 mmHg 75%
18:00 +19°C° 0.1 mm 4 mps 602 mmHg 81%
19:00 +18°C° 0.1 mm 3 mps 602 mmHg 86%
20:00 +17°C° 0.1 mm 2 mps 602 mmHg 92%
21:00 +16°C° 0 mm 2 mps 603 mmHg 93%
22:00 +16°C° 0 mm 1 mps 603 mmHg 94%
23:00 +16°C° 0 mm 1 mps 603 mmHg 95%

10 August, Monday

Time Temperature Precipitation Wind Pressure Humidity
00:00 +15°C° 0.1 mm 1 mps 602 mmHg 95%
01:00 +15°C° 0.1 mm 1 mps 602 mmHg 95%
02:00 +15°C° 0.1 mm 1 mps 601 mmHg 94%
03:00 +14°C° 0 mm 1 mps 601 mmHg 95%
04:00 +14°C° 0 mm 1 mps 601 mmHg 96%
05:00 +12°C° 0 mm 0 mps 601 mmHg 97%
06:00 +14°C° 0 mm 0 mps 602 mmHg 90%
07:00 +16°C° 0 mm 1 mps 603 mmHg 83%
08:00 +19°C° 0 mm 1 mps 603 mmHg 76%
09:00 +20°C° 0 mm 1 mps 604 mmHg 65%
10:00 +21°C° 0 mm 2 mps 604 mmHg 54%
11:00 +24°C° 0 mm 2 mps 604 mmHg 43%
12:00 +25°C° 0 mm 3 mps 604 mmHg 43%
13:00 +26°C° 0 mm 4 mps 604 mmHg 43%
14:00 +26°C° 0 mm 5 mps 603 mmHg 44%
15:00 +24°C° 0.1 mm 6 mps 603 mmHg 53%
16:00 +22°C° 0.1 mm 6 mps 602 mmHg 62%
17:00 +21°C° 0.1 mm 6 mps 601 mmHg 71%
18:00 +19°C° 0 mm 5 mps 601 mmHg 78%
19:00 +18°C° 0 mm 3 mps 601 mmHg 85%
20:00 +16°C° 0 mm 2 mps 601 mmHg 92%
21:00 +16°C° 0 mm 2 mps 602 mmHg 92%
22:00 +16°C° 0 mm 1 mps 602 mmHg 92%
23:00 +16°C° 0 mm 1 mps 602 mmHg 92%

11 August, Tuesday

Time Temperature Precipitation Wind Pressure Humidity
00:00 +16°C° 0 mm 1 mps 602 mmHg 91%
01:00 +16°C° 0 mm 1 mps 601 mmHg 91%
02:00 +16°C° 0 mm 1 mps 601 mmHg 91%
03:00 +16°C° 0.1 mm 1 mps 601 mmHg 91%
04:00 +16°C° 0.1 mm 1 mps 601 mmHg 91%
05:00 +16°C° 0.1 mm 1 mps 601 mmHg 91%
06:00 +18°C° 0.1 mm 1 mps 602 mmHg 89%
07:00 +18°C° 0.1 mm 1 mps 602 mmHg 86%
08:00 +18°C° 0.1 mm 2 mps 602 mmHg 83%
09:00 +19°C° 0.3 mm 2 mps 602 mmHg 77%
10:00 +20°C° 0.3 mm 3 mps 603 mmHg 71%
11:00 +22°C° 0.3 mm 4 mps 603 mmHg 65%
12:00 +22°C° 0.4 mm 4 mps 603 mmHg 65%
13:00 +22°C° 0.4 mm 5 mps 602 mmHg 65%
14:00 +22°C° 0.4 mm 5 mps 601 mmHg 64%
15:00 +21°C° 0.2 mm 5 mps 601 mmHg 68%
16:00 +20°C° 0.2 mm 5 mps 601 mmHg 71%
17:00 +20°C° 0.2 mm 4 mps 601 mmHg 74%
18:00 +18°C° 0 mm 4 mps 601 mmHg 80%
19:00 +17°C° 0 mm 3 mps 601 mmHg 86%
20:00 +16°C° 0 mm 2 mps 601 mmHg 92%
21:00 +16°C° 0 mm 2 mps 601 mmHg 91%
22:00 +16°C° 0 mm 2 mps 601 mmHg 90%
23:00 +16°C° 0 mm 1 mps 601 mmHg 90%
Show more